USA 176 (DSP 22)

Last updated on Thu Oct 30 2025 00:02:47 GMT+0000 (Coordinated Universal Time)

1 28158U 04004A 25302.30994852 -.00000146 00000+0 00000+0 0 9994 2 28158 11.7459 27.7168 0003493 224.8598 160.4262 1.00268311 30625
UTC large
Height (km)
Speed (km/s)
/
Latitude / Longitude
Inclination (degrees)
Orbital Period (minutes)
Azimuth
Elevation
Range (km)
Doppler Factor

Next 0 passes for location: London (51.5072 / 0.1276)

Sorry there are no passes over London.